�N����,����,�~����,�C��,���x,�C��,����,���ϕ���,�ő�u�ԕ���,�ő厞����,���˗�,�I�_���x,�n�����x,�ő啗���N��,DTYPE
"23/02/28","00:10",0.0,2.8,90.7,1026.5,300.5,1.8,2.7,292.2,0.00,1.5,7.9,"00:00:16",1
"23/02/28","00:20",0.0,2.3,91.0,1025.8,324.4,1.8,2.2,319.2,0.00,1.0,7.8,"00:13:34",1
"23/02/28","00:30",0.0,2.0,91.5,1026.0,312.1,0.8,1.9,328.9,0.00,0.8,7.8,"00:20:30",1
"23/02/28","00:40",0.0,1.9,91.8,1026.0,313.9,1.1,2.0,310.7,0.00,0.7,7.7,"00:30:02",1
"23/02/28","00:50",0.0,1.1,92.3,1025.8,323.6,2.1,3.1,323.6,0.00,0.0,7.8,"00:42:44",1
"23/02/28","01:00",0.0,1.3,92.6,1025.8,314.1,1.2,2.1,313.2,0.00,0.3,7.6,"00:54:16",1
"23/02/28","01:10",0.0,1.2,93.0,1025.8,325.3,1.8,2.7,319.8,0.00,0.2,7.6,"01:02:08",1
"23/02/28","01:20",0.0,1.2,93.2,1025.6,295.2,1.1,2.0,325.3,0.00,0.3,7.4,"01:19:36",1
"23/02/28","01:30",0.0,1.1,93.5,1025.6,323.3,1.5,2.0,322.9,0.00,0.2,7.4,"01:25:20",1
"23/02/28","01:40",0.0,1.0,93.7,1025.6,306.1,1.2,2.2,331.6,0.00,0.1,7.5,"01:39:52",1
"23/02/28","01:50",0.0,0.6,94.0,1025.8,328.5,2.0,2.5,334.4,0.00,-0.2,7.5,"01:46:56",1
"23/02/28","02:00",0.0,0.7,94.3,1025.1,310.4,1.3,1.8,314.6,0.00,-0.1,7.3,"01:52:16",1
"23/02/28","02:10",0.0,0.9,94.5,1025.1,303.9,1.0,2.0,322.3,0.00,0.2,7.2,"02:06:16",1
"23/02/28","02:20",0.0,0.5,94.6,1025.1,303.6,1.2,1.9,318.7,0.00,-0.2,7.4,"02:12:40",1
"23/02/28","02:30",0.0,0.4,94.9,1025.1,305.3,1.2,2.0,315.9,0.00,-0.3,7.2,"02:27:44",1
"23/02/28","02:40",0.0,0.2,95.4,1024.6,328.7,1.7,2.0,331.8,0.00,-0.4,7.1,"02:32:56",1
"23/02/28","02:50",0.0,0.3,95.4,1025.1,309.0,1.3,2.1,322.3,0.00,-0.3,7.1,"02:42:40",1
"23/02/28","03:00",0.0,0.2,95.6,1024.9,296.3,0.7,1.6,321.5,0.00,-0.4,7.0,"02:50:02",1
"23/02/28","03:10",0.0,0.2,95.8,1025.1,319.0,1.5,2.4,325.4,0.00,-0.3,7.1,"03:03:44",1
"23/02/28","03:20",0.0,0.0,96.0,1024.6,289.5,1.2,2.0,318.2,0.00,-0.5,6.9,"03:18:08",1
"23/02/28","03:30",0.0,0.0,96.1,1024.6,328.2,1.7,2.2,331.3,0.00,-0.5,7.2,"03:27:44",1
"23/02/28","03:40",0.0,0.1,96.3,1024.6,285.7,0.6,1.9,342.8,0.00,-0.4,6.9,"03:30:08",1
"23/02/28","03:50",0.0,-0.1,96.5,1024.6,317.4,1.7,2.2,322.0,0.00,-0.5,6.7,"03:45:44",1
"23/02/28","04:00",0.0,-0.1,96.6,1024.6,315.8,1.5,1.9,321.3,0.00,-0.5,6.9,"03:50:24",1
"23/02/28","04:10",0.0,-0.2,96.9,1024.4,310.0,1.3,2.0,315.6,0.00,-0.6,7.0,"04:01:52",1
"23/02/28","04:20",0.0,-0.3,96.8,1024.6,287.7,1.0,2.0,310.4,0.00,-0.7,6.6,"04:14:48",1
"23/02/28","04:30",0.0,-0.4,97.2,1024.4,309.8,1.6,2.2,319.4,0.00,-0.7,6.6,"04:27:52",1
"23/02/28","04:40",0.0,-0.5,97.3,1024.6,330.1,2.0,2.4,326.4,0.00,-0.8,6.7,"04:35:44",1
"23/02/28","04:50",0.0,-0.3,97.4,1024.6,299.5,1.3,1.9,322.3,0.00,-0.6,6.8,"04:40:48",1
"23/02/28","05:00",0.0,-0.3,97.4,1024.4,293.9,1.1,1.6,312.1,0.00,-0.6,6.5,"04:51:28",1
"23/02/28","05:10",0.0,-0.5,97.6,1024.4,296.4,1.1,1.9,318.1,0.00,-0.8,6.5,"05:07:04",1
"23/02/28","05:20",0.0,-0.3,97.7,1024.4,305.1,1.5,1.8,314.6,0.00,-0.6,6.4,"05:12:24",1
"23/02/28","05:30",0.0,0.1,97.8,1024.4,296.8,1.5,2.0,321.2,0.00,-0.2,6.4,"05:24:48",1
"23/02/28","05:40",0.0,0.1,97.8,1024.9,299.6,1.0,2.0,321.1,0.00,-0.2,6.5,"05:35:56",1
"23/02/28","05:50",0.0,-0.2,97.8,1024.6,307.2,1.5,2.1,319.3,0.00,-0.5,6.2,"05:47:12",1
"23/02/28","06:00",0.0,-0.7,98.1,1024.6,319.1,2.0,2.6,315.5,0.00,-0.9,6.3,"05:59:04",1
"23/02/28","06:10",0.0,-0.5,97.6,1024.6,318.9,1.8,2.1,325.2,0.00,-0.8,6.1,"06:02:16",1
"23/02/28","06:20",0.0,-0.6,98.2,1024.4,270.8,0.6,1.1,286.2,0.00,-0.8,6.2,"06:14:08",1
"23/02/28","06:30",0.0,-0.6,97.7,1024.9,297.4,1.3,1.7,312.2,0.00,-0.9,6.2,"06:23:20",1
"23/02/28","06:40",0.0,-0.8,98.4,1024.6,306.6,1.7,2.4,321.9,0.00,-1.0,6.1,"06:33:04",1
"23/02/28","06:50",0.0,-0.7,97.8,1024.6,324.8,1.2,1.3,324.4,0.00,-1.0,6.2,"06:40:24",1
"23/02/28","07:00",0.0,-0.7,98.5,1024.4,305.7,0.6,1.3,265.9,0.00,-0.9,6.0,"06:50:18",1
"23/02/28","07:10",0.0,-0.6,97.9,1024.4,318.4,1.1,2.2,309.6,0.00,-0.9,6.0,"07:08:08",1
"23/02/28","07:20",0.0,-1.0,98.7,1024.9,330.8,1.8,2.6,324.0,0.00,-1.1,6.1,"07:11:12",1
"23/02/28","07:30",0.0,-0.9,98.3,1024.9,332.1,2.0,2.8,324.0,0.00,-1.1,6.1,"07:20:16",1
"23/02/28","07:40",0.0,-0.3,98.3,1024.9,296.0,1.8,2.1,302.9,0.00,-0.5,5.9,"07:37:52",1
"23/02/28","07:50",0.0,0.5,98.3,1025.1,310.9,2.1,3.1,324.4,0.00,0.3,6.0,"07:45:52",1
"23/02/28","08:00",0.0,0.8,97.9,1025.6,299.4,1.5,2.2,317.4,0.01,0.5,5.8,"07:58:52",1
"23/02/28","08:10",0.0,0.7,98.7,1025.8,292.1,0.6,1.0,301.9,0.03,0.6,5.8,"08:00:32",1
"23/02/28","08:20",0.0,1.2,98.3,1025.6,300.5,1.2,1.6,316.3,0.05,1.0,5.9,"08:11:52",1
"23/02/28","08:30",0.0,2.4,98.4,1025.8,267.1,0.6,1.7,307.7,0.10,2.2,5.7,"08:20:08",1
"23/02/28","08:40",0.0,2.8,98.0,1026.3,154.0,0.2,0.5,113.9,0.08,2.6,5.7,"08:38:48",1
"23/02/28","08:50",0.0,3.7,98.1,1026.3,220.4,0.3,0.8,285.7,0.11,3.5,5.9,"08:43:50",1
"23/02/28","09:00",0.0,4.3,97.8,1026.7,135.0,0.2,0.9,130.8,0.14,4.0,5.7,"08:57:36",1
"23/02/28","09:10",0.0,4.8,98.1,1027.5,149.7,0.5,1.0,142.2,0.17,4.6,5.8,"09:00:40",1
"23/02/28","09:20",0.0,5.7,96.4,1027.7,261.1,0.8,1.4,215.7,0.20,5.2,5.8,"09:19:50",1
"23/02/28","09:30",0.0,5.9,96.6,1027.7,225.1,0.6,1.0,226.9,0.22,5.4,6.0,"09:20:28",1
"23/02/28","09:40",0.0,6.4,96.3,1027.5,233.4,0.6,1.4,204.1,0.25,5.9,5.9,"09:33:12",1
"23/02/28","09:50",0.0,6.6,95.6,1027.7,209.4,1.0,2.0,200.2,0.27,6.0,5.8,"09:47:44",1
"23/02/28","10:00",0.0,6.7,93.7,1027.5,155.7,1.0,2.0,133.1,0.29,5.8,5.9,"09:56:00",1
"23/02/28","10:10",0.0,7.5,91.6,1027.7,200.2,0.7,2.1,127.5,0.32,6.3,6.2,"10:08:28",1
"23/02/28","10:20",0.0,8.4,88.2,1027.9,251.2,0.7,1.4,223.7,0.34,6.6,6.0,"10:15:32",1
"23/02/28","10:30",0.0,9.1,82.6,1028.2,300.2,0.8,1.4,353.2,0.36,6.3,5.9,"10:23:14",1
"23/02/28","10:40",0.0,9.7,76.0,1027.9,265.5,1.1,2.6,208.2,0.38,5.7,6.2,"10:38:42",1
"23/02/28","10:50",0.0,10.2,71.6,1027.9,223.8,1.0,2.1,203.5,0.41,5.3,6.2,"10:49:14",1
"23/02/28","11:00",0.0,10.4,69.4,1028.2,181.0,1.0,2.6,130.4,0.43,5.1,6.5,"10:57:56",1
"23/02/28","11:10",0.0,10.8,67.3,1027.5,197.3,1.7,2.8,201.5,0.45,5.0,6.3,"11:08:08",1
"23/02/28","11:20",0.0,11.0,66.5,1027.7,193.8,1.6,2.8,200.6,0.47,5.0,6.4,"11:13:24",1
"23/02/28","11:30",0.0,11.6,67.2,1027.2,180.4,1.6,3.7,126.1,0.49,5.8,6.5,"11:20:02",1
"23/02/28","11:40",0.0,11.8,66.2,1027.0,173.5,1.6,3.4,125.0,0.50,5.7,6.6,"11:30:08",1
"23/02/28","11:50",0.0,12.0,65.6,1026.7,164.1,1.3,3.2,126.5,0.51,5.8,6.8,"11:44:08",1
"23/02/28","12:00",0.0,12.8,64.5,1026.5,260.7,1.6,3.5,144.5,0.52,6.3,7.1,"11:58:24",1
"23/02/28","12:10",0.0,13.1,62.8,1026.3,205.3,1.3,3.3,134.4,0.53,6.2,7.0,"12:00:24",1
"23/02/28","12:20",0.0,13.6,60.3,1026.3,226.6,1.1,2.6,179.8,0.53,6.1,7.1,"12:12:32",1
"23/02/28","12:30",0.0,13.6,58.5,1026.0,165.7,1.3,2.9,121.0,0.54,5.7,7.3,"12:25:30",1
"23/02/28","12:40",0.0,14.1,58.2,1025.6,157.5,1.0,2.8,129.8,0.54,6.1,7.5,"12:38:48",1
"23/02/28","12:50",0.0,14.3,57.4,1025.1,72.0,1.2,3.5,128.2,0.54,6.0,7.4,"12:42:16",1
"23/02/28","13:00",0.0,15.0,55.4,1024.9,187.0,1.3,3.4,165.5,0.54,6.2,7.6,"12:55:44",1
"23/02/28","13:10",0.0,15.4,52.0,1024.9,177.2,1.1,2.8,130.1,0.54,5.6,7.7,"13:03:44",1
"23/02/28","13:20",0.0,15.8,51.3,1024.1,293.0,1.2,2.6,332.5,0.54,5.8,7.7,"13:13:52",1
"23/02/28","13:30",0.0,15.6,49.7,1023.7,264.0,1.8,3.3,254.7,0.54,5.2,7.7,"13:22:16",1
"23/02/28","13:40",0.0,16.3,44.6,1023.4,331.8,1.6,6.8,219.6,0.53,4.3,8.1,"13:39:20",1
"23/02/28","13:50",0.0,16.2,44.5,1023.4,181.5,3.0,4.8,188.3,0.53,4.1,8.2,"13:45:20",1
"23/02/28","14:00",0.0,16.6,42.5,1023.2,193.5,2.3,4.4,180.7,0.52,3.9,8.4,"13:52:48",1
"23/02/28","14:10",0.0,16.8,41.1,1023.0,260.1,2.0,4.2,296.7,0.51,3.6,8.5,"14:05:04",1
"23/02/28","14:20",0.0,16.8,39.4,1022.7,221.9,2.6,5.6,190.5,0.50,3.0,8.3,"14:10:40",1
"23/02/28","14:30",0.0,16.3,38.5,1022.3,264.5,2.7,5.5,246.1,0.48,2.2,8.7,"14:24:08",1
"23/02/28","14:40",0.0,16.8,38.4,1022.5,220.6,2.6,4.5,137.3,0.47,2.6,9.0,"14:37:52",1
"23/02/28","14:50",0.0,16.5,38.6,1022.0,214.0,2.8,4.5,206.5,0.45,2.4,8.9,"14:45:44",1
"23/02/28","15:00",0.0,16.9,37.5,1021.8,245.6,2.1,5.2,239.1,0.43,2.4,9.0,"14:50:56",1
"23/02/28","15:10",0.0,17.1,38.8,1022.0,210.7,2.3,5.8,213.4,0.41,3.0,9.0,"15:03:36",1
"23/02/28","15:20",0.0,17.1,37.0,1021.8,210.1,2.3,4.8,140.5,0.39,2.3,9.2,"15:15:28",1
"23/02/28","15:30",0.0,17.0,37.1,1021.8,181.2,2.6,4.9,132.3,0.37,2.3,9.1,"15:23:44",1
"23/02/28","15:40",0.0,17.1,35.3,1021.5,215.8,2.5,5.6,235.6,0.35,1.7,9.4,"15:34:16",1
"23/02/28","15:50",0.0,16.7,36.0,1021.5,181.6,3.1,6.0,138.9,0.32,1.6,9.6,"15:47:12",1
"23/02/28","16:00",0.0,16.6,35.8,1021.3,206.7,3.2,4.8,187.8,0.29,1.4,9.4,"15:50:56",1
"23/02/28","16:10",0.0,16.7,36.4,1021.3,202.2,2.7,4.4,221.2,0.27,1.8,9.5,"16:03:36",1
"23/02/28","16:20",0.0,16.7,36.4,1021.3,193.6,2.8,4.7,137.8,0.24,1.8,9.7,"16:14:24",1
"23/02/28","16:30",0.0,16.3,34.0,1021.1,201.5,3.2,6.4,226.5,0.21,0.5,9.9,"16:28:08",1
"23/02/28","16:40",0.0,16.4,34.4,1021.1,197.8,2.8,4.9,176.2,0.19,0.7,9.9,"16:33:52",1
"23/02/28","16:50",0.0,15.9,32.1,1021.3,197.3,3.5,6.3,227.9,0.16,-0.7,9.9,"16:46:48",1
"23/02/28","17:00",0.0,15.7,32.9,1021.3,207.6,3.2,6.0,191.1,0.13,-0.5,10.0,"16:54:00",1
"23/02/28","17:10",0.0,15.6,32.6,1021.5,204.3,2.8,4.4,217.4,0.10,-0.7,9.8,"17:00:48",1
"23/02/28","17:20",0.0,15.5,33.5,1020.8,205.6,2.3,4.9,205.9,0.08,-0.4,9.9,"17:12:40",1
"23/02/28","17:30",0.0,15.3,33.2,1020.8,212.6,2.1,3.7,243.7,0.06,-0.7,10.0,"17:20:32",1
"23/02/28","17:40",0.0,15.0,33.1,1021.1,208.8,2.2,4.1,211.9,0.04,-1.0,9.9,"17:32:56",1
"23/02/28","17:50",0.0,14.9,33.3,1021.3,222.2,2.0,4.0,198.2,0.02,-1.1,9.7,"17:40:08",1
"23/02/28","18:00",0.0,14.2,35.1,1021.1,219.9,1.7,3.7,246.0,0.00,-1.0,9.9,"17:52:42",1
"23/02/28","18:10",0.0,13.5,35.9,1020.8,239.1,1.6,2.7,239.8,0.00,-1.3,10.0,"18:00:08",1
"23/02/28","18:20",0.0,13.0,37.9,1020.8,240.2,1.7,2.4,227.8,0.00,-1.0,9.9,"18:10:12",1
"23/02/28","18:30",0.0,12.2,45.7,1020.6,332.3,1.7,1.9,334.6,0.00,0.9,9.8,"18:25:56",1
"23/02/28","18:40",0.0,11.2,44.6,1021.1,311.9,2.0,2.7,309.5,0.00,-0.4,9.9,"18:37:36",1
"23/02/28","18:50",0.0,10.7,48.2,1021.1,321.3,1.2,2.0,336.0,0.00,0.2,10.0,"18:43:00",1
"23/02/28","19:00",0.0,10.1,49.5,1020.8,315.8,1.2,2.0,326.8,0.00,0.1,9.8,"18:59:14",1
"23/02/28","19:10",0.0,9.6,51.8,1020.6,322.6,1.2,2.2,334.3,0.00,0.2,9.7,"19:04:26",1
"23/02/28","19:20",0.0,9.3,52.6,1020.4,327.8,1.5,2.5,316.4,0.00,0.2,9.8,"19:19:44",1
"23/02/28","19:30",0.0,9.2,54.9,1020.8,319.0,1.8,2.7,319.3,0.00,0.7,9.7,"19:20:16",1
"23/02/28","19:40",0.0,8.4,59.7,1020.4,339.0,1.8,2.9,337.8,0.00,1.1,9.7,"19:33:28",1
"23/02/28","19:50",0.0,7.8,62.8,1020.6,307.6,2.1,3.1,304.2,0.00,1.2,9.6,"19:48:24",1
"23/02/28","20:00",0.0,7.7,63.9,1021.1,291.3,2.2,3.2,315.3,0.00,1.3,9.7,"19:59:12",1
"23/02/28","20:10",0.0,7.4,65.0,1020.6,313.3,2.7,4.3,323.9,0.00,1.3,9.6,"20:06:24",1
"23/02/28","20:20",0.0,7.2,66.0,1020.8,319.5,1.8,2.8,314.1,0.00,1.3,9.6,"20:18:56",1
"23/02/28","20:30",0.0,7.1,67.5,1020.8,330.1,1.7,3.1,323.7,0.00,1.5,9.4,"20:29:20",1
"23/02/28","20:40",0.0,6.8,68.3,1021.1,303.9,1.6,2.6,266.3,0.00,1.4,9.4,"20:32:48",1
"23/02/28","20:50",0.0,6.6,68.4,1020.8,328.1,1.6,3.3,315.5,0.00,1.2,9.4,"20:41:44",1
"23/02/28","21:00",0.0,6.2,69.8,1020.8,310.2,1.7,3.2,315.8,0.00,1.1,9.1,"20:55:38",1
"23/02/28","21:10",0.0,6.6,70.9,1021.1,334.2,1.6,2.7,324.9,0.00,1.7,9.1,"21:02:26",1
"23/02/28","21:20",0.0,6.8,71.2,1020.8,323.8,1.3,3.3,324.9,0.00,2.0,9.2,"21:11:20",1
"23/02/28","21:30",0.0,6.3,72.3,1021.1,316.4,2.0,2.9,316.0,0.00,1.7,9.0,"21:25:54",1
"23/02/28","21:40",0.0,6.0,73.5,1021.1,322.6,1.7,3.1,316.6,0.00,1.7,8.9,"21:34:34",1
"23/02/28","21:50",0.0,5.8,75.0,1021.1,322.2,2.1,2.8,327.7,0.00,1.8,8.9,"21:44:34",1
"23/02/28","22:00",0.0,5.7,76.4,1021.1,318.4,2.1,2.7,334.3,0.00,1.9,8.9,"21:51:50",1
"23/02/28","22:10",0.0,5.6,77.8,1021.3,308.4,2.0,2.6,311.8,0.00,2.1,8.9,"22:09:40",1
"23/02/28","22:20",0.0,5.9,79.0,1021.1,305.3,2.5,3.5,309.5,0.00,2.6,8.9,"22:13:16",1
"23/02/28","22:30",0.0,5.7,79.8,1021.1,295.1,1.3,3.1,328.4,0.00,2.5,8.6,"22:22:48",1
"23/02/28","22:40",0.0,5.6,81.2,1020.6,320.2,1.7,2.6,316.5,0.00,2.7,8.8,"22:34:26",1
"23/02/28","22:50",0.0,5.2,82.5,1020.8,336.7,1.6,2.8,297.2,0.00,2.5,8.7,"22:42:08",1
"23/02/28","23:00",0.0,4.9,83.4,1020.4,286.8,1.1,1.8,342.3,0.00,2.4,8.8,"22:51:06",1
"23/02/28","23:10",0.0,4.9,84.7,1020.4,322.4,2.0,2.7,343.9,0.00,2.6,8.6,"23:08:48",1
"23/02/28","23:20",0.0,4.8,85.5,1020.6,299.9,1.2,2.6,320.2,0.00,2.6,8.5,"23:10:58",1
"23/02/28","23:30",0.0,5.0,86.3,1020.4,335.3,1.0,2.2,324.5,0.00,2.9,8.5,"23:23:02",1
"23/02/28","23:40",0.0,4.7,87.0,1020.4,320.5,2.2,2.8,334.0,0.00,2.8,8.3,"23:32:22",1
"23/02/28","23:50",0.0,4.4,87.6,1020.4,297.8,1.2,2.4,265.5,0.00,2.6,8.4,"23:45:18",1
"23/02/28","24:00",0.0,4.5,88.4,1020.8,318.0,2.1,2.9,312.9,0.00,2.8,8.5,"23:52:02",1
